Content
SEND FEEDBACK

Daily
Averages
Monthly
Summary
United States of America

PUT IN BAY, OHIO


Home > North America > United States > Ohio
Elevation: 561 feet     Latitude: 41 39N     Longitude: 082 48W

WEATHER
 
SELECT A DAY
Number of Records: 123,030;   Date Range: 12/10/00 - 9/15/14
 
SHARE

PRINT THIS DATA

[ ← Previous Day ]
WEATHER ALMANAC - JANUARY 3, 2014
[ Next Day → ]
[ °C ]   °F
Weather ElementAverageHighLow
Temperature5.4 °F13.3 °F (11:00 pm)-3.3 °F (8:00 am)
Dewpoint-1.4 °F4.6 °F (10:00 pm)-7.6 °F (8:00 am)
Humidity72.1 %83 % (10:00 am)59 % (1:00 am)
Barometer30.40 in30.48 in (11:00 am)30.27 in (11:00 pm)
Wind Speed7.9 mph16.1 mph (11:00 pm)
Wind Gust17.3 mph (9:00 pm)
Weather ElementAverage
Wind DirectionW (266.7 °)

Weather ElementTotal
Precipitation0.01 in
Heating Degree Days60 (Base 65)
Averaged from 27 records on January 3, 2014
WEATHER CONDITIONS BREAKOUT
WIND DIRECTION BREAKOUT
WEATHER BY HOUR - JANUARY 3, 2014
[ °C ]   °F
Local TimeTemperatureDewpointHumidityBarometerVisibilityWind DirectionWind SpeedGust SpeedPrecipitationEventsConditions
1:00 AM4.0 °F-3.0 °F59 %30.28 inNNW (330°)8.1 mph
1:00 AM3.9 °F-3.5 °F71 %30.28 inNNW (330°)8.1 mph
2:00 AM2.8 °F-4.0 °F73 %30.30 inNNW (330°)8.1 mph
3:00 AM1.0 °F-5.1 °F75 %30.34 inNW (320°)6.9 mph
4:00 AM0.7 °F-5.4 °F75 %30.37 inNNW (330°)8.1 mph
5:00 AM-0.2 °F-6.2 °F76 %30.38 inNW (320°)5.8 mph
6:00 AM-1.3 °F-6.5 °F79 %30.41 inNW (320°)5.8 mph0.01 in
7:00 AM-2.0 °F-7.0 °F69 %30.43 inNW (320°)5.8 mph
7:00 AM-2.0 °F-7.1 °F79 %30.43 inNW (320°)5.8 mph
8:00 AM-3.3 °F-7.6 °F82 %30.45 inNNW (340°)3.5 mph
9:00 AM-1.5 °F-6.3 °F80 %30.45 inNW (320°)4.6 mph
10:00 AM1.0 °F-3.1 °F83 %30.47 inNNW (330°)3.5 mph
11:00 AM3.6 °F-3.3 °F73 %30.48 inNNW (330°)2.3 mph
12:00 PM5.5 °F-2.2 °F70 %30.48 inWSW (240°)5.8 mph
1:00 PM9.0 °F3.0 °F65 %30.46 inSW (230°)5.8 mph
1:00 PM9.0 °F2.8 °F76 %30.46 inSW (230°)5.8 mph
2:00 PM9.1 °F2.5 °F74 %30.43 inSW (230°)6.9 mph
3:00 PM9.9 °F3.0 °F74 %30.44 inSW (220°)8.1 mph
4:00 PM11.3 °F2.5 °F68 %30.43 inSSW (210°)8.1 mph
5:00 PM8.4 °F1.2 °F73 %30.43 inSSW (200°)9.2 mph
6:00 PM9.5 °F0.0 °F65 %30.41 inSSW (200°)11.5 mph
7:00 PM9.0 °F2.0 °F60 %30.40 inSSW (200°)11.5 mph
7:00 PM9.3 °F1.6 °F71 %30.40 inSSW (200°)11.5 mph
8:00 PM10.8 °F1.8 °F67 %30.38 inSSW (200°)11.5 mph
9:00 PM11.7 °F3.4 °F69 %30.35 inSSW (200°)11.5 mph17.3 mph
10:00 PM12.2 °F4.6 °F72 %30.31 inSSW (200°)13.8 mph
11:00 PM13.3 °F4.5 °F68 %30.27 inSSW (200°)16.1 mph
Hourly data recorded from CXHA, located miles away from Put In Bay, Ohio







STORIES FROM OUR PARTNERS